Regional Weather Roundup
Issued by NWS

Home | Current Version | Previous Version | Graphics & Text | Print | Product List | Glossary On
Versions: 1 2 3 4 5 6 7 8 9 10 11 12 13 14 15 16 17 18 19 20 21 22 23 24 25 26 27 28 29 30 31 32 33 34 35 36 37 38 39 40 41 42 43 44 45 46 47 48 49 50
000
ASUS43 KMKX 240900
RWRWI

WISCONSIN REGIONAL WEATHER ROUNDUP
NATIONAL WEATHER SERVICE MILWAUKEE/SULLIVAN WI
300 AM CST MON NOV 24 2014

NOTE: "FAIR" INDICATES FEW OR NO CLOUDS BELOW 12,000 FEET WITH NO
SIGNIFICANT WEATHER AND/OR OBSTRUCTIONS TO VISIBILITY.

WIZ001-002-006>008-014>016-023>028-241000-
NORTHWEST WISCONSIN

CITY           SKY/WX    TMP DP  RH WIND       PRES   REMARKS
SUPERIOR ARPT  RAIN      36  33  90 N3        29.25F
ASHLAND        MIX PCPN  36  35  96 NW8       29.21S FOG     WCI  30
HAYWARD        LGT SNOW  33  31  92 CALM      29.20S FOG
SIREN          LGT SNOW  34  33  97 NW7       29.26S WCI  28
CUMBERLAND     LGT SNOW  32  32 100 NW13      29.22R WCI  22
RICE LAKE      LGT SNOW  33  33  99 NW6       29.22S WCI  27
CHETEK         LGT SNOW  32  32 100 NW7       29.20S VSB 1   WCI  26
LADYSMITH      DRIZZLE   36  36  99 NW10      29.18R WCI  28
EAU CLAIRE     NOT AVBL
MENOMONIE      LGT RAIN  35  34  96 W13       29.21S WCI  26
NEW RICHMOND   CLOUDY    32  32 100 NW15G21   29.26S WCI  22
OSCEOLA        LGT SNOW  33  33 100 NW8       29.29F WCI  26
$$

WIZ003>005-009-010-017-018-241000-
NORTH CENTRAL WISCONSIN

CITY           SKY/WX    TMP DP  RH WIND       PRES   REMARKS
MANITOWISH WTR LGT RAIN  35  35 100 N5        29.11F WCI  31
ARBOR VITAE    DRIZZLE   39  38  97 N10       29.10S WCI  32
WOODRUFF       DRIZZLE   39  38  97 N10       29.10S WCI  32
RHINELANDER    CLOUDY    39  38  96 NW6       29.08F FOG     WCI  35
EAGLE RIVER    DRZL/FOG  38  38 100 NW5       29.07F VSB 1/2 WCI  34
LAND O LAKES   FOG       39  39 100 N7        29.09F VSB 1   WCI  34
PHILLIPS       CLOUDY    35  35 100 N6        29.12S WCI  30
TOMAHAWK       DRIZZLE   39  38  98 CALM      29.09F
MEDFORD        RAIN      40  40 100 NW8       29.09F WCI  34
MERRILL        DRIZZLE   40  40 100 NW6       29.08S
$$

WIZ029-030-035-036-043>047-241000-
CENTRAL WISCONSIN

CITY           SKY/WX    TMP DP  RH WIND       PRES   REMARKS
WAUSAU         LGT RAIN  40  40 100 NW6       29.06S FOG
MOSINEE        LGT RAIN  39  39 100 W5        29.08F VSB 3/4
MARSHFIELD     CLOUDY    40  39  97 NW12      29.09S FOG     WCI  33
STEVENS POINT  HVY RAIN  40  40 100 W3        29.07F
WAUPACA        RAIN      43  42  95 NW3       29.06F VSB 1
WAUTOMA        CLOUDY    43  43 100 CALM      29.07F FOG
WISC RAPIDS    CLOUDY    43  42  97 W7        29.09F
CAMP DOUGLAS   NOT AVBL
$$

WIZ011>013-019>022-031-037>040-048>050-241000-
NORTHEAST WISCONSIN

CITY           SKY/WX    TMP DP  RH WIND       PRES   REMARKS
ANTIGO         DRZL/FOG  37  37 100 N5        29.05F VSB 1   WCI  33
SHAWANO        DRIZZLE   42  40  95 CALM      29.06F
OCONTO         CLOUDY    41  41 100 CALM      29.03F VSB 1
STURGEON BAY   CLOUDY    43  41  93 N5        29.02F VSB 1
GREEN BAY      LGT RAIN  41  40  96 W5        29.03F VSB 1/2
MANITOWOC      LGT RAIN  43  43 100 NW6       29.03F
APPLETON       FOG       41  41 100 NW5       29.05F VSB 1/2
CLINTONVILLE   LGT RAIN  41  41 100 CALM      29.06S
OSHKOSH        FOG       42  41  96 W3        29.04F VSB 1/2
$$

WIZ032>034-041-042-053>061-241000-
SOUTHWEST WISCONSIN

CITY           SKY/WX    TMP DP  RH WIND       PRES   REMARKS
LA CROSSE      LGT RAIN  38  38 100 NW14      29.17S FOG     WCI  30
SPARTA         DRIZZLE   38  38  97 W7        29.16S WCI  33
VIROQUA        CLOUDY    37  37 100 NW13      29.14S WCI  29
BOSCOBEL       CLOUDY    41  38  89 W8        29.16R
PRAIRIE DU CHI CLOUDY    39  36  88 W15       29.18R WCI  31
PLATTEVILLE    CLOUDY    40  39  97 W15       29.14R WCI  31
$$

WIZ056-057-062-063-064-067-068-241000-
SOUTH CENTRAL WISCONSIN

CITY           SKY/WX    TMP DP  RH WIND       PRES   REMARKS
REEDSBURG      CLOUDY    42  42 100 W13G18    29.09S
BARABOO/DELLS  DRZL/FOG  44  43  97 W7        29.08S VSB 1/2
LONE ROCK      CLOUDY    45  39  81 W15       29.11R
MINERAL POINT  FOG       43  41  93 NW12G22   29.10S VSB 3/4
MADISON        CLOUDY    45  44  97 W3        29.07S FOG
MIDDLETON      CLOUDY    46  46 100 W5        29.08R
WATERTOWN      CLOUDY    44  44 100 NW3       29.05F FOG
MONROE         LGT RAIN  45  45 100 NW9       29.07S
JANESVILLE     FOG       45  43  93 CALM      29.07S VSB 1/2
$$

WIZ051-052-058>065-066-070>072-241000-
SOUTHEAST WISCONSIN

CITY           SKY/WX    TMP DP  RH WIND       PRES   REMARKS
MILWAUKEE      LGT RAIN  46  44  93 W3        29.04F FOG
WAUKESHA       DRIZZLE   43  43 100 W5        29.06S
MILWAUKEE/TIMM LGT RAIN  43  43 100 CALM      29.05S
RACINE         LGT RAIN  46  45  96 SW3       29.06S
BURLINGTON     CLOUDY    44  44 100 SW6       29.06S FOG
KENOSHA        CLOUDY    46  46 100 SW7       29.06R FOG
FOND DU LAC    LGT RAIN  43  41  93 CALM      29.05S VSB 3/4
SHEBOYGAN      LGT RAIN  43  42  97 NW5       29.03F
WEST BEND      DRIZZLE   43  43 100 W3        29.04S
JUNEAU         DRZL/FOG  42  42  99 CALM      29.06F VSB 3/4
$$

LSZ147-162-241000-
LAKE SUPERIOR

STATION/POSITION TIME  TEMP    WIND        PRES    WAVE
                       AIR SEA DIR/SP/G            HT/PER
                 (UTC) (F)     (DEG/KT/KT) (MB)    (FT/S)
DEVILS ISLAND    0800   38     340/ 15/ 17  989.1F
PORT WING        0800   37     310/ 13/ 15  990.5
SAXON HARBOR     0800   38     310/  9/ 10  988.5F
$$

LMZ867-665-643>646-241000-
LAKE MICHIGAN

STATION/POSITION TIME  TEMP    WIND        PRES    WAVE
                       AIR SEA DIR/SP/G            HT/PER
                 (UTC) (F)     (DEG/KT/KT) (MB)    (FT/S)
CHAMBERS ISLAND  0800   41     360/  6/  8  984.8F
N MID LAKE BUOY  0750   44 42   50/  8/  8  983.8F   2/ 6
NORTHPORT PIER   0800   43     310/  3/  4  984.1F
SISTER BAY       0843          360/  5/  6   N/A
KEWAUNEE LAKESHO 0800   43     290/  2/  3  983.2F
SHEBOYGAN LAKESH 0800   45 39  340/  7/  7  983.7F
PORT WASHINGTON  0800   45     300/  3/  6  984.8F
MILWAUKEE LAKESH 0800   45     290/  4/  4   N/A
S MID LAKE BUOY  0750   46 42  210/ 10/ 12  983.5F   1/ 3
KENOSHA   LAKESH 0800   46     260/  5/  6  984.4S
$$

TC  - TEMPERATURE IN CELSIUS
VSB - VISIBILITY IN STATUTE MILES
WCI - WIND CHILL INDEX
HX  - HEAT INDEX




USA.gov is the U.S. government's official web portal to all federal, state and local government web resources and services.